EN

Hourly Weather Pacanowice

Today, 8 March, Monday

Time Temperature Precipitation Wind Pressure Humidity
00:00 -2°C° 0.3 mm 4 mps 753 mmHg 91%
01:00 -2°C° 0.3 mm 4 mps 753 mmHg 94%
02:00 -2°C° 0 mm 3 mps 753 mmHg 92%
03:00 -2°C° 0 mm 3 mps 753 mmHg 90%
04:00 -3°C° 0 mm 2 mps 753 mmHg 88%
05:00 -3°C° 0 mm 2 mps 753 mmHg 85%
06:00 -3°C° 0 mm 2 mps 753 mmHg 82%
07:00 -4°C° 0 mm 2 mps 754 mmHg 79%
08:00 -2°C° 0 mm 3 mps 754 mmHg 69%
09:00 -1°C° 0 mm 3 mps 755 mmHg 59%
10:00 0°C° 0 mm 4 mps 755 mmHg 49%
11:00 0°C° 0 mm 4 mps 755 mmHg 48%
12:00 +1°C° 0 mm 4 mps 756 mmHg 47%
13:00 +1°C° 0 mm 4 mps 756 mmHg 46%
14:00 +1°C° 0 mm 4 mps 756 mmHg 48%
15:00 +1°C° 0 mm 4 mps 756 mmHg 49%
16:00 +1°C° 0 mm 3 mps 756 mmHg 50%
17:00 0°C° 0 mm 3 mps 756 mmHg 55%
18:00 -1°C° 0 mm 2 mps 756 mmHg 60%
19:00 0°C° 0 mm 1 mps 757 mmHg 65%
20:00 0°C° 0 mm 1 mps 757 mmHg 66%
21:00 0°C° 0 mm 1 mps 757 mmHg 68%
22:00 -1°C° 0 mm 1 mps 757 mmHg 69%
23:00 -1°C° 0 mm 1 mps 757 mmHg 71%

Tomorrow, 9 March, Tuesday

Time Temperature Precipitation Wind Pressure Humidity
00:00 -1°C° 0 mm 1 mps 757 mmHg 73%
01:00 -2°C° 0 mm 0 mps 757 mmHg 75%
02:00 -2°C° 0 mm 0 mps 757 mmHg 75%
03:00 -1°C° 0 mm 1 mps 757 mmHg 75%
04:00 -1°C° 0 mm 1 mps 756 mmHg 75%
05:00 -1°C° 0 mm 1 mps 756 mmHg 73%
06:00 -1°C° 0 mm 1 mps 757 mmHg 72%
07:00 -1°C° 0 mm 1 mps 757 mmHg 71%
08:00 0°C° 0 mm 1 mps 757 mmHg 65%
09:00 +1°C° 0 mm 1 mps 757 mmHg 59%
10:00 +2°C° 0 mm 1 mps 757 mmHg 53%
11:00 +3°C° 0 mm 1 mps 756 mmHg 49%
12:00 +2°C° 0 mm 2 mps 756 mmHg 45%
13:00 +3°C° 0 mm 2 mps 756 mmHg 41%
14:00 +4°C° 0 mm 1 mps 756 mmHg 42%
15:00 +4°C° 0 mm 1 mps 755 mmHg 42%
16:00 +4°C° 0 mm 1 mps 755 mmHg 42%
17:00 +3°C° 0 mm 1 mps 755 mmHg 47%
18:00 +2°C° 0 mm 1 mps 755 mmHg 52%
19:00 -2°C° 0 mm 2 mps 755 mmHg 56%
20:00 -2°C° 0 mm 2 mps 755 mmHg 57%
21:00 -2°C° 0 mm 2 mps 755 mmHg 58%
22:00 -2°C° 0 mm 2 mps 756 mmHg 59%
23:00 -3°C° 0 mm 2 mps 755 mmHg 60%

Day after tomorrow, 10 March, Wednesday

Time Temperature Precipitation Wind Pressure Humidity
00:00 -3°C° 0 mm 2 mps 755 mmHg 60%
01:00 -3°C° 0 mm 2 mps 755 mmHg 60%
02:00 -3°C° 0 mm 2 mps 755 mmHg 60%
03:00 -1°C° 0 mm 1 mps 755 mmHg 60%
04:00 -1°C° 0 mm 1 mps 755 mmHg 60%
05:00 -1°C° 0 mm 1 mps 755 mmHg 58%
06:00 -1°C° 0 mm 1 mps 755 mmHg 57%
07:00 0°C° 0 mm 1 mps 755 mmHg 55%
08:00 +1°C° 0 mm 1 mps 755 mmHg 50%
09:00 +1°C° 0 mm 2 mps 755 mmHg 45%
10:00 +3°C° 0 mm 2 mps 755 mmHg 40%
11:00 +3°C° 0 mm 2 mps 755 mmHg 37%
12:00 +4°C° 0 mm 2 mps 755 mmHg 35%
13:00 +5°C° 0 mm 2 mps 755 mmHg 33%
14:00 +5°C° 0 mm 2 mps 754 mmHg 34%
15:00 +5°C° 0 mm 2 mps 754 mmHg 36%
16:00 +6°C° 0 mm 1 mps 754 mmHg 37%
17:00 +3°C° 0 mm 2 mps 754 mmHg 42%
18:00 +2°C° 0 mm 2 mps 754 mmHg 46%
19:00 -1°C° 0 mm 2 mps 754 mmHg 50%
20:00 -1°C° 0 mm 3 mps 754 mmHg 53%
21:00 -1°C° 0 mm 3 mps 754 mmHg 56%
22:00 -1°C° 0 mm 3 mps 754 mmHg 59%
23:00 -1°C° 0 mm 3 mps 753 mmHg 66%

11 March, Thursday

Time Temperature Precipitation Wind Pressure Humidity
00:00 -2°C° 0 mm 4 mps 753 mmHg 74%
01:00 -2°C° 0 mm 4 mps 752 mmHg 81%
02:00 -1°C° 0 mm 4 mps 752 mmHg 81%
03:00 -1°C° 0 mm 4 mps 751 mmHg 80%
04:00 -1°C° 0 mm 5 mps 750 mmHg 80%
05:00 0°C° 0 mm 5 mps 749 mmHg 80%
06:00 0°C° 0 mm 5 mps 749 mmHg 81%
07:00 -1°C° 0 mm 6 mps 748 mmHg 81%
08:00 +1°C° 0.6 mm 6 mps 747 mmHg 85%
09:00 0°C° 0.6 mm 7 mps 746 mmHg 90%
10:00 0°C° 0.6 mm 7 mps 745 mmHg 94%
11:00 +2°C° 1.1 mm 7 mps 745 mmHg 94%
12:00 +2°C° 1.1 mm 7 mps 744 mmHg 93%
13:00 +3°C° 1.1 mm 7 mps 743 mmHg 92%
14:00 +4°C° 1.6 mm 7 mps 742 mmHg 93%
15:00 +4°C° 1.6 mm 7 mps 741 mmHg 93%
16:00 +5°C° 1.6 mm 7 mps 741 mmHg 94%
17:00 +6°C° 0.9 mm 7 mps 740 mmHg 91%
18:00 +6°C° 0.9 mm 7 mps 740 mmHg 89%
19:00 +7°C° 0.9 mm 8 mps 740 mmHg 86%
20:00 +6°C° 0.1 mm 7 mps 740 mmHg 86%
21:00 +5°C° 0.1 mm 6 mps 741 mmHg 85%
22:00 +6°C° 0.1 mm 5 mps 741 mmHg 84%
23:00 +4°C° 0 mm 6 mps 741 mmHg 84%

12 March, Friday

Time Temperature Precipitation Wind Pressure Humidity
00:00 +4°C° 0 mm 6 mps 742 mmHg 83%
01:00 +4°C° 0 mm 6 mps 742 mmHg 82%
02:00 +3°C° 0 mm 7 mps 742 mmHg 81%
03:00 +3°C° 0 mm 7 mps 742 mmHg 79%
04:00 +2°C° 0 mm 8 mps 742 mmHg 77%
05:00 +2°C° 0 mm 8 mps 742 mmHg 77%
06:00 +1°C° 0 mm 9 mps 742 mmHg 77%
07:00 +1°C° 0 mm 9 mps 743 mmHg 77%
08:00 +2°C° 0 mm 9 mps 743 mmHg 77%
09:00 +2°C° 0 mm 10 mps 744 mmHg 76%
10:00 +2°C° 0 mm 10 mps 745 mmHg 76%
11:00 +5°C° 0 mm 10 mps 745 mmHg 68%
12:00 +6°C° 0 mm 11 mps 746 mmHg 60%
13:00 +7°C° 0 mm 11 mps 746 mmHg 52%
14:00 +7°C° 0 mm 10 mps 746 mmHg 52%
15:00 +6°C° 0 mm 9 mps 746 mmHg 51%
16:00 +6°C° 0 mm 8 mps 746 mmHg 51%
17:00 +5°C° 0 mm 7 mps 747 mmHg 57%
18:00 +4°C° 0 mm 6 mps 747 mmHg 63%
19:00 +4°C° 0 mm 4 mps 747 mmHg 69%
20:00 +4°C° 0 mm 4 mps 747 mmHg 71%
21:00 +2°C° 0 mm 5 mps 748 mmHg 73%
22:00 +2°C° 0 mm 5 mps 748 mmHg 75%
23:00 +2°C° 0 mm 5 mps 748 mmHg 76%

13 March, Saturday

Time Temperature Precipitation Wind Pressure Humidity
00:00 +1°C° 0 mm 4 mps 747 mmHg 78%
01:00 +1°C° 0 mm 4 mps 747 mmHg 80%
02:00 0°C° 0 mm 4 mps 747 mmHg 80%
03:00 0°C° 0 mm 4 mps 747 mmHg 81%
04:00 0°C° 0 mm 4 mps 747 mmHg 82%
05:00 0°C° 0 mm 4 mps 747 mmHg 81%
06:00 0°C° 0 mm 4 mps 747 mmHg 80%
07:00 0°C° 0 mm 4 mps 747 mmHg 80%
08:00 +3°C° 0 mm 4 mps 746 mmHg 74%
09:00 +5°C° 0 mm 5 mps 746 mmHg 69%
10:00 +6°C° 0 mm 5 mps 746 mmHg 64%
11:00 +7°C° 0 mm 6 mps 746 mmHg 60%
12:00 +8°C° 0 mm 6 mps 745 mmHg 57%
13:00 +9°C° 0 mm 6 mps 745 mmHg 54%
14:00 +9°C° 0.2 mm 6 mps 745 mmHg 57%
15:00 +8°C° 0.2 mm 6 mps 745 mmHg 60%
16:00 +8°C° 0.2 mm 6 mps 744 mmHg 63%
17:00 +7°C° 0 mm 5 mps 745 mmHg 69%
18:00 +6°C° 0 mm 4 mps 745 mmHg 76%
19:00 +5°C° 0 mm 3 mps 745 mmHg 82%
20:00 +4°C° 0 mm 3 mps 745 mmHg 85%
21:00 +4°C° 0 mm 3 mps 745 mmHg 88%
22:00 +3°C° 0 mm 3 mps 746 mmHg 90%
23:00 +3°C° 0 mm 3 mps 746 mmHg 89%
Show more

We Need Your Consent

Meteoprog and our Service Providers may store and access personal data such as cookies, device identifiers or other similar technologies on your device and process such data to personalise content and ads, as well as provide social media features and to analyse the traffic.

  • Store and/or access information on your device

    Cookies, device identifiers or other information can be stored or accessed on your device for the purposes indicated above.

  • Personalised ads and content, ad and content measurement, audience insights, and products development

    Ads and content can be personalised based on a profile. More data can be added to better personalise ads and content. Ad and content performance can be measured. Insights about the audience who saw the ads and content can be derived. Such data can be used to develop or improve user’s experience, systems and software.

By clicking ‘I Agree’ you will allow the use of indicated cookies, device identifiers, web beacons or other similar technologies. Your settings can be changed in the browser on your device.

For certain purposes, legitimate interests may be relied on, rather than consent. You can read more about this in our Privacy and Cookie Policy.